HILAT

Satellite information

Favourite Embed

Satellite Type and Status

PAYLOADIN ORBIT

Key statistics

Satellite HILAT at a glance.

Uptime

15452

Days in orbit

Revolutions

≈ 14.4

Per day

Orbit

LEO

Low Earth Orbit

Inclination

82.0

Latest

Satellite identification and parameters

Extended collection of information and parameters for HILAT.

Object identification

Identified? True

Debris? False

Object name: HILAT

International designator: 1983-063A

Object number (NORAD): 14154

Object ID (CCSDS): 14154

Country: UNITED STATES OF AMERICA (US)

Current information (Y/N): Y

RCS size: LARGE

Orbital parameters

Period: 100.107 minutes

Inclination: 82.0275 deg

SMA: 7141.724 km

Apoapsis: 791.026 km

Periapsis: 736.153 km

RAAN: 28.2245 deg

Eccentricy: 0.00384173

Argument of periapsis: 312.3729 deg

Mean anomaly: 218.9028 deg

Mean motion: 14.38461207 rev/day

Mean motion (dot): 0.00000633 rev/day2

B* drag term: 0.00020073331 1/REarth

Two-line elements (TLE)

Creation date: Oct. 16, 2025, 2:37 a.m.

Reference frame: TEME

Reference center: EARTH

Epoch: Oct. 15, 2025, 6:47 p.m. UTC

TLE line 0: 0 HILAT

TLE line 1: 1 14154U 83063A 25288.78332436 .00000633 00000-0 20073-3 0 9993

TLE line 2: 2 14154 82.0275 28.2245 0038417 312.3729 218.9028 14.38461207212443

Live tracking on map

Real-time ground track for satellite HILAT.

In-orbit conjunctions

A list of the most updated potential collisions computed for object HILAT.

Target Orbit TCA Probability of collision Miss distance Type
NOAA 16 DEB SSO 2025-05-19 20:42:01 0.0003663037 356.0 (m) DEBRIS
DMSP 5D-3 F16 DEB SSO 2025-03-14 17:50:16 0.0004999883 272.0 (m) DEBRIS
SL-8 R/B LEO 2025-02-06 17:38:29 0.00015556 628.0 (m) ROCKET BODY
FENGYUN 1C DEB SSO 2024-09-06 10:34:36 0.0002917366 595.0 (m) DEBRIS
CZ-6A DEB SSO 2024-08-12 11:52:28 0.0003287229 113.0 (m) DEBRIS

Associated space launch

Refurbished Transit-O 16 satellite used to carry remote-sensing experiments and in situ measurements

HILAT was lifted into orbit during the mission ‘Scout D-1 | HILAT’, on board a Scout D-1 space rocket.

The launch took place on June 27, 1983, 3:37 p.m. from Space Launch Complex 5.

For more information about the launch, click the button.

Launch to space Scout D-1 | HILAT
Scout D-1 | HILAT

Agency: N/A

Status: Launch Successful

Launch date: June 27, 1983, 3:37 p.m. UTC

Rocket: Scout D-1

Launch pad: Space Launch Complex 5

Location: Vandenberg SFB, CA, USA

...

Latest news about this satellite

There are no fresh news available about this satellite. Check back as we update our databases every day.


Newsletter sign-up

Weekly statistics, charts and insights to help you stay on top of the space industry.